Overview Statistics Trail Chart Weather Telemetry Raw packets
 

This is the latest recevied weather packets stored in our database for station/object KB0BS-13. If no packets are shown the sender has not sent any weather packets the latest 10 day(s).

<< 55 56 57 58 59 60 61 >>
Time Temp. Humidity Pressure Rain* Wind** Luminosity Snow
1777333387 14.44° C 59% 1009.7 hPa 0 mm - 38 W/m² -
1777333085 14.44° C 61% 1009.6 hPa 0 mm - 39 W/m² -
1777332782 14.44° C 61% 1009.5 hPa 0 mm - 56 W/m² -
1777332479 14.44° C 61% 1009.5 hPa 0 mm - 56 W/m² -
1777332175 14.44° C 61% 1009.5 hPa 0 mm - 56 W/m² -
1777331873 14.44° C 60% 1009.5 hPa 0 mm - 45 W/m² -
1777331570 14.44° C 60% 1009.5 hPa 0 mm - 45 W/m² -
1777331268 14.44° C 60% 1009.5 hPa 0 mm - 45 W/m² -
1777330662 14.44° C 61% 1009.1 hPa 0 mm - 48 W/m² -
1777330359 14.44° C 61% 1009.1 hPa 0 mm - 48 W/m² -
1777330057 14.44° C 61% 1009.1 hPa 0 mm - 48 W/m² -
1777329756 15° C 61% 1009.6 hPa 0 mm - 100 W/m² -
1777329454 15° C 61% 1009.6 hPa 0 mm - 100 W/m² -
1777329151 15° C 61% 1009.6 hPa 0 mm - 100 W/m² -
1777328013 15° C 60% 1009.8 hPa 0 mm - 164 W/m² -
1777327711 15° C 60% 1009.8 hPa 0 mm - 164 W/m² -
1777327408 15° C 60% 1010 hPa 0 mm - 166 W/m² -
1777327106 15° C 60% 1010.4 hPa 0 mm - 163 W/m² -
1777326801 15° C 61% 1010.6 hPa 0 mm - 183 W/m² -
1777326499 15° C 60% 1010.5 hPa 0 mm - 177 W/m² -
1777326197 15° C 60% 1010.7 hPa 0 mm - 206 W/m² -
1777325895 15° C 61% 1011.1 hPa 0 mm - 190 W/m² -
1777325593 15° C 61% 1011 hPa 0 mm - 203 W/m² -
1777325290 15° C 61% 1011.5 hPa 0 mm - 217 W/m² -
1777324988 15° C 59% 1011.6 hPa 0 mm - 202 W/m² -

* Rain latest hour (hover to see other rain measurements)
** Current wind speed in m/s (hover to see current wind gust speed)